�N����,����,�~����,�C��,���x,�C��,����,���ϕ���,�ő�u�ԕ���,�ő厞����,���˗�,�I�_���x,�n�����x,�ő啗���N��,DTYPE
"21/08/29","00:10",0.0,26.0,82.3,1007.6,330.6,1.0,1.7,346.6,0.00,22.8,27.7,"00:01:36",1
"21/08/29","00:20",0.0,26.1,82.6,1007.8,335.3,2.0,3.5,344.1,0.00,22.9,27.7,"00:19:52",1
"21/08/29","00:30",0.0,26.2,82.6,1007.8,328.9,1.7,3.7,344.1,0.00,23.0,27.6,"00:23:20",1
"21/08/29","00:40",0.0,26.1,82.6,1007.6,313.7,1.1,2.1,340.9,0.00,22.9,27.5,"00:30:32",1
"21/08/29","00:50",0.0,26.1,82.6,1007.6,322.4,1.3,2.0,343.1,0.00,22.9,27.6,"00:42:56",1
"21/08/29","01:00",0.0,26.0,82.8,1007.4,313.5,1.1,2.9,331.1,0.00,22.9,27.5,"00:58:40",1
"21/08/29","01:10",0.0,25.9,83.0,1007.4,323.0,1.2,2.1,323.7,0.00,22.8,27.4,"01:04:48",1
"21/08/29","01:20",0.0,25.8,83.4,1007.4,313.4,1.1,2.2,340.7,0.00,22.8,27.3,"01:10:32",1
"21/08/29","01:30",0.0,25.7,83.7,1006.9,308.7,1.0,2.1,341.6,0.00,22.8,27.5,"01:22:00",1
"21/08/29","01:40",0.0,25.6,84.0,1006.9,297.3,0.7,1.9,346.2,0.00,22.7,27.4,"01:34:08",1
"21/08/29","01:50",0.0,25.3,84.3,1007.6,342.9,0.5,1.2,345.7,0.00,22.5,27.3,"01:45:04",1
"21/08/29","02:00",0.0,25.1,84.8,1007.1,336.2,0.8,1.3,332.6,0.00,22.4,27.3,"01:52:16",1
"21/08/29","02:10",0.0,24.8,85.2,1007.1,305.6,0.6,0.9,338.0,0.00,22.2,27.4,"02:00:32",1
"21/08/29","02:20",0.0,24.8,86.0,1007.1,324.6,1.0,1.7,345.1,0.00,22.3,27.4,"02:11:12",1
"21/08/29","02:30",0.0,25.0,86.5,1007.4,313.5,0.8,1.6,334.1,0.00,22.6,27.2,"02:26:48",1
"21/08/29","02:40",0.0,25.0,86.9,1007.4,325.2,1.0,2.5,343.6,0.00,22.7,27.1,"02:39:04",1
"21/08/29","02:50",0.0,25.1,87.1,1007.4,318.1,1.0,2.0,344.4,0.00,22.8,27.2,"02:42:48",1
"21/08/29","03:00",0.0,25.1,87.2,1007.1,336.4,1.0,1.9,345.6,0.00,22.9,27.1,"02:54:08",1
"21/08/29","03:10",0.0,25.0,87.3,1007.4,335.9,1.0,2.0,334.6,0.00,22.8,27.4,"03:02:16",1
"21/08/29","03:20",0.0,24.9,87.5,1007.6,315.1,1.1,2.7,339.0,0.00,22.7,27.0,"03:11:04",1
"21/08/29","03:30",0.0,24.9,87.7,1007.4,340.0,1.5,2.6,341.0,0.00,22.8,27.1,"03:22:56",1
"21/08/29","03:40",0.0,24.8,88.1,1007.6,338.2,1.5,2.4,343.3,0.00,22.7,27.1,"03:36:24",1
"21/08/29","03:50",0.0,24.7,88.3,1007.8,337.5,1.1,2.4,341.3,0.00,22.7,27.0,"03:40:08",1
"21/08/29","04:00",0.0,24.8,88.4,1007.4,346.4,0.8,1.8,348.8,0.00,22.8,26.8,"03:52:08",1
"21/08/29","04:10",0.0,24.8,88.5,1007.8,343.9,1.0,1.9,329.3,0.00,22.8,26.9,"04:00:56",1
"21/08/29","04:20",0.0,24.9,88.5,1007.8,330.4,1.1,2.2,339.6,0.00,22.9,27.0,"04:12:08",1
"21/08/29","04:30",0.0,24.9,88.5,1008.1,308.6,0.8,2.0,313.0,0.00,22.9,27.0,"04:25:20",1
"21/08/29","04:40",0.0,25.1,88.3,1008.1,330.4,1.3,2.8,345.0,0.00,23.1,26.9,"04:39:04",1
"21/08/29","04:50",0.0,25.2,88.0,1008.3,331.3,1.6,2.5,333.1,0.00,23.1,26.9,"04:43:28",1
"21/08/29","05:00",0.0,25.3,87.6,1008.3,328.0,1.5,2.6,325.7,0.00,23.1,27.1,"04:54:48",1
"21/08/29","05:10",0.0,25.4,87.3,1008.6,327.6,1.8,3.3,338.8,0.00,23.2,26.7,"05:08:32",1
"21/08/29","05:20",0.0,25.4,87.0,1008.3,330.4,1.6,2.8,337.9,0.00,23.1,26.7,"05:16:32",1
"21/08/29","05:30",0.0,25.5,86.8,1008.6,336.2,1.6,2.4,338.6,0.00,23.2,26.8,"05:24:08",1
"21/08/29","05:40",0.0,25.4,86.7,1008.8,334.8,1.3,2.7,355.3,0.00,23.1,26.8,"05:36:40",1
"21/08/29","05:50",0.0,25.5,86.7,1008.6,329.2,1.3,2.6,344.9,0.00,23.2,26.7,"05:46:32",1
"21/08/29","06:00",0.0,25.4,86.7,1008.6,338.0,1.5,2.2,338.9,0.00,23.1,26.9,"05:57:04",1
"21/08/29","06:10",0.0,25.4,86.7,1008.6,335.9,1.5,2.7,347.8,0.00,23.1,26.7,"06:03:28",1
"21/08/29","06:20",0.0,25.5,86.8,1008.3,336.6,1.3,2.2,344.2,0.00,23.2,26.7,"06:13:52",1
"21/08/29","06:30",0.0,25.4,86.9,1008.8,334.8,1.2,2.0,339.3,0.00,23.1,26.6,"06:27:12",1
"21/08/29","06:40",0.0,25.5,86.9,1008.3,336.3,1.1,1.9,323.0,0.00,23.2,26.9,"06:32:24",1
"21/08/29","06:50",0.0,25.7,86.8,1008.6,333.2,1.3,2.1,349.9,0.00,23.4,26.7,"06:45:12",1
"21/08/29","07:00",0.0,25.7,86.7,1008.6,338.9,1.2,1.8,339.2,0.01,23.4,26.6,"06:50:40",1
"21/08/29","07:10",0.0,25.9,86.6,1008.6,336.4,1.1,1.9,319.4,0.03,23.5,26.8,"07:04:56",1
"21/08/29","07:20",0.0,26.2,86.5,1007.8,332.6,1.1,1.8,332.2,0.06,23.8,26.7,"07:12:40",1
"21/08/29","07:30",0.0,26.7,85.8,1008.3,326.6,1.2,2.2,312.1,0.11,24.2,26.8,"07:23:44",1
"21/08/29","07:40",0.0,27.5,83.8,1008.1,324.9,0.7,2.4,350.8,0.13,24.6,26.7,"07:35:44",1
"21/08/29","07:50",0.0,27.9,81.6,1008.1,329.6,0.8,2.0,245.6,0.13,24.5,26.8,"07:49:20",1
"21/08/29","08:00",0.0,28.4,78.9,1007.4,306.3,0.8,1.8,346.6,0.17,24.4,26.8,"07:52:56",1
"21/08/29","08:10",0.0,28.8,76.4,1007.1,273.7,0.6,2.6,237.7,0.20,24.3,26.6,"08:05:52",1
"21/08/29","08:20",0.0,29.7,73.9,1007.8,197.6,0.5,1.4,230.4,0.23,24.6,26.6,"08:14:00",1
"21/08/29","08:30",0.0,29.8,72.2,1008.3,327.0,0.6,2.1,350.4,0.25,24.3,26.8,"08:28:16",1
"21/08/29","08:40",0.0,30.5,71.3,1008.6,11.1,0.5,2.0,346.4,0.28,24.8,26.7,"08:32:32",1
"21/08/29","08:50",0.0,31.0,68.4,1008.8,142.2,0.6,1.3,235.2,0.32,24.5,26.7,"08:42:56",1
"21/08/29","09:00",0.0,30.8,67.4,1009.0,300.8,1.0,2.9,239.7,0.30,24.1,26.7,"08:55:20",1
"21/08/29","09:10",0.0,31.4,67.7,1009.3,155.6,0.7,1.9,358.7,0.35,24.7,26.7,"09:00:08",1
"21/08/29","09:20",0.0,30.9,67.4,1009.5,135.2,1.0,2.1,130.4,0.16,24.2,26.7,"09:11:12",1
"21/08/29","09:30",0.0,30.5,68.0,1009.3,100.3,0.3,1.1,317.2,0.17,24.0,27.0,"09:23:44",1
"21/08/29","09:40",0.0,31.5,66.7,1009.5,249.1,0.7,2.1,342.5,0.37,24.6,27.1,"09:39:12",1
"21/08/29","09:50",0.0,31.1,64.2,1009.3,223.8,1.1,3.2,234.0,0.15,23.6,27.0,"09:40:08",1
"21/08/29","10:00",0.0,30.9,67.2,1008.6,234.6,1.6,3.5,213.4,0.28,24.1,27.0,"09:59:12",1
"21/08/29","10:10",0.0,31.0,65.5,1008.8,196.9,1.7,4.3,230.3,0.25,23.8,27.0,"10:00:32",1
"21/08/29","10:20",0.0,30.6,66.3,1009.0,303.4,1.0,1.8,341.6,0.14,23.6,27.2,"10:19:36",1
"21/08/29","10:30",0.0,32.2,64.6,1009.0,339.4,0.8,1.8,165.4,0.53,24.7,27.0,"10:29:12",1
"21/08/29","10:40",0.0,32.6,61.3,1009.3,212.9,0.6,1.9,206.6,0.32,24.2,27.1,"10:38:00",1
"21/08/29","10:50",0.0,31.8,61.5,1009.0,292.8,0.8,1.9,335.8,0.18,23.5,27.2,"10:43:44",1
"21/08/29","11:00",0.0,32.5,61.3,1009.0,231.3,0.8,2.0,235.5,0.48,24.1,27.2,"10:55:44",1
"21/08/29","11:10",0.0,32.5,58.9,1009.3,243.1,1.2,3.4,232.4,0.33,23.5,27.2,"11:08:00",1
"21/08/29","11:20",0.0,33.6,60.4,1009.3,145.7,1.0,2.1,192.6,0.61,24.9,27.1,"11:12:16",1
"21/08/29","11:30",0.0,33.4,57.3,1009.5,249.3,1.0,1.9,214.1,0.50,23.8,27.3,"11:21:04",1
"21/08/29","11:40",0.0,33.2,56.8,1009.5,117.2,0.8,1.9,142.1,0.43,23.5,27.4,"11:32:24",1
"21/08/29","11:50",0.0,34.3,54.3,1009.3,216.5,1.1,3.2,195.8,0.63,23.8,27.7,"11:43:12",1
"21/08/29","12:00",0.0,34.4,55.4,1009.7,231.7,1.1,3.9,233.3,0.43,24.2,27.8,"11:57:20",1
"21/08/29","12:10",0.0,33.9,55.6,1009.3,255.4,1.0,3.7,206.8,0.35,23.8,27.7,"12:08:40",1
"21/08/29","12:20",0.0,34.1,55.1,1009.0,228.1,1.8,3.9,215.1,0.55,23.8,27.7,"12:16:40",1
"21/08/29","12:30",0.0,34.2,55.4,1009.0,215.1,1.3,3.6,224.5,0.56,24.0,27.8,"12:26:32",1
"21/08/29","12:40",0.0,35.0,54.5,1009.5,229.8,0.8,2.5,222.2,0.62,24.5,28.0,"12:38:56",1
"21/08/29","12:50",0.0,34.7,53.6,1009.5,318.7,1.2,3.2,355.3,0.58,23.9,27.9,"12:44:24",1
"21/08/29","13:00",0.0,34.8,52.3,1009.3,233.9,1.1,4.1,228.9,0.60,23.6,28.0,"12:52:24",1
"21/08/29","13:10",0.0,35.0,51.9,1009.0,268.7,1.6,3.7,201.2,0.60,23.7,28.0,"13:07:04",1
"21/08/29","13:20",0.0,35.1,52.7,1009.3,240.1,1.2,4.0,235.7,0.57,24.0,28.3,"13:15:28",1
"21/08/29","13:30",0.0,34.9,50.9,1009.5,272.4,1.2,3.2,306.2,0.56,23.3,28.2,"13:29:36",1
"21/08/29","13:40",0.0,34.9,51.7,1009.3,222.9,2.3,5.0,218.3,0.57,23.5,28.2,"13:38:32",1
"21/08/29","13:50",0.0,35.2,51.3,1009.0,254.4,1.2,3.9,223.2,0.56,23.7,28.6,"13:47:28",1
"21/08/29","14:00",0.0,35.4,50.5,1009.3,258.6,1.5,4.2,236.2,0.56,23.6,28.5,"13:51:28",1
"21/08/29","14:10",0.0,35.4,49.3,1009.0,226.3,2.5,4.8,221.1,0.58,23.2,28.6,"14:01:28",1
"21/08/29","14:20",0.0,35.5,51.3,1008.8,253.1,1.7,3.9,232.7,0.52,23.9,28.7,"14:11:04",1
"21/08/29","14:30",0.0,35.7,49.3,1008.8,261.1,1.6,4.0,234.7,0.50,23.5,28.7,"14:29:20",1
"21/08/29","14:40",0.0,35.9,49.6,1009.0,244.4,1.5,3.9,215.3,0.52,23.8,28.6,"14:34:16",1
"21/08/29","14:50",0.0,35.5,50.4,1008.8,236.8,1.7,4.2,238.8,0.39,23.7,28.8,"14:43:36",1
"21/08/29","15:00",0.0,36.0,49.2,1008.8,234.0,0.8,1.9,226.6,0.45,23.7,28.8,"14:50:16",1
"21/08/29","15:10",0.0,36.4,51.4,1009.0,315.5,0.8,1.9,327.7,0.42,24.8,28.9,"15:00:48",1
"21/08/29","15:20",0.0,36.4,50.5,1009.3,117.5,0.8,1.7,41.2,0.39,24.5,28.9,"15:10:56",1
"21/08/29","15:30",0.0,36.0,48.1,1009.0,200.5,1.3,4.3,212.6,0.38,23.3,28.9,"15:23:52",1
"21/08/29","15:40",0.0,35.7,48.2,1008.6,252.4,1.3,3.6,241.2,0.36,23.1,29.0,"15:30:16",1
"21/08/29","15:50",0.0,35.9,49.2,1008.3,254.1,1.0,2.9,212.4,0.34,23.6,28.9,"15:49:52",1
"21/08/29","16:00",0.0,35.7,50.4,1008.3,256.7,1.1,3.6,230.4,0.27,23.8,28.9,"15:50:08",1
"21/08/29","16:10",0.0,35.4,48.6,1008.3,267.1,0.7,1.9,231.1,0.18,23.0,29.0,"16:00:24",1
"21/08/29","16:20",0.0,35.3,52.5,1007.8,323.3,0.7,2.5,348.8,0.21,24.1,29.1,"16:14:40",1
"21/08/29","16:30",0.0,35.4,49.5,1008.1,325.8,1.0,2.2,351.7,0.20,23.3,29.1,"16:28:00",1
"21/08/29","16:40",0.0,34.7,53.3,1007.8,320.2,0.8,2.9,346.7,0.14,23.8,29.2,"16:38:16",1
"21/08/29","16:50",0.0,35.3,53.2,1007.8,353.9,0.8,2.0,341.9,0.17,24.4,29.0,"16:40:08",1
"21/08/29","17:00",0.0,34.9,55.6,1007.8,68.2,0.7,2.0,13.2,0.13,24.7,29.2,"16:52:48",1
"21/08/29","17:10",0.0,34.4,56.5,1007.8,64.1,1.2,3.2,64.6,0.16,24.5,29.2,"17:09:20",1
"21/08/29","17:20",0.0,34.0,57.8,1007.6,70.3,1.2,2.6,22.1,0.11,24.5,29.2,"17:10:16",1
"21/08/29","17:30",0.0,32.9,60.2,1007.4,96.7,1.1,2.4,133.1,0.02,24.2,29.3,"17:23:52",1
"21/08/29","17:40",0.0,32.6,62.5,1007.1,93.5,0.5,1.7,100.3,0.02,24.5,29.2,"17:38:40",1
"21/08/29","17:50",0.0,32.3,63.0,1006.9,21.0,0.6,1.8,37.9,0.02,24.4,29.2,"17:44:08",1
"21/08/29","18:00",0.0,32.2,62.9,1006.7,100.5,1.0,2.2,121.0,0.01,24.3,29.2,"17:51:36",1
"21/08/29","18:10",0.0,31.8,63.7,1006.4,72.0,0.5,1.3,110.7,0.00,24.1,29.2,"18:06:40",1
"21/08/29","18:20",0.0,31.4,64.8,1006.7,55.2,0.6,1.7,57.6,0.00,24.0,29.3,"18:17:52",1
"21/08/29","18:30",0.0,31.1,65.6,1006.4,103.3,1.0,1.9,96.0,0.00,23.9,29.2,"18:25:36",1
"21/08/29","18:40",0.0,30.8,66.4,1006.2,82.9,0.6,1.6,41.5,0.00,23.9,29.0,"18:36:40",1
"21/08/29","18:50",0.0,30.7,67.2,1006.0,93.5,0.7,1.8,83.5,0.00,24.0,29.0,"18:49:52",1
"21/08/29","19:00",0.0,30.4,68.6,1006.0,28.8,0.7,1.6,1.7,0.00,24.0,29.1,"18:56:32",1
"21/08/29","19:10",0.0,29.9,70.6,1006.0,1.7,0.5,1.3,348.0,0.00,24.0,29.2,"19:02:00",1
"21/08/29","19:20",0.0,29.6,72.5,1005.7,350.6,0.8,1.4,320.4,0.00,24.2,29.0,"19:16:48",1
"21/08/29","19:30",0.0,29.3,74.7,1005.7,355.9,0.8,1.4,346.8,0.00,24.4,29.1,"19:22:56",1
"21/08/29","19:40",0.0,28.9,76.3,1006.4,335.2,0.8,1.3,344.3,0.00,24.3,28.8,"19:36:48",1
"21/08/29","19:50",0.0,28.4,77.4,1006.4,329.5,0.6,1.1,335.0,0.00,24.1,28.7,"19:43:04",1
"21/08/29","20:00",0.0,28.5,78.9,1006.4,342.4,1.0,1.9,347.7,0.00,24.5,28.9,"19:57:28",1
"21/08/29","20:10",0.0,28.1,79.9,1006.9,331.4,0.8,2.0,339.4,0.00,24.3,28.9,"20:02:32",1
"21/08/29","20:20",0.0,28.0,80.6,1007.1,333.9,1.2,1.8,332.2,0.00,24.4,28.9,"20:10:24",1
"21/08/29","20:30",0.0,27.9,81.1,1007.1,326.4,1.0,1.7,334.8,0.00,24.4,28.8,"20:23:28",1
"21/08/29","20:40",0.0,27.8,81.6,1007.4,289.6,0.6,1.3,264.8,0.00,24.4,28.7,"20:31:20",1
"21/08/29","20:50",0.0,27.5,82.3,1007.6,311.8,1.1,1.9,326.2,0.00,24.3,28.8,"20:44:16",1
"21/08/29","21:00",0.0,27.3,82.8,1007.4,317.0,0.8,1.7,339.6,0.00,24.2,28.7,"20:51:12",1
"21/08/29","21:10",0.0,27.2,83.5,1007.6,333.6,0.8,1.4,342.2,0.00,24.2,28.6,"21:08:00",1
"21/08/29","21:20",0.0,27.2,84.1,1007.8,327.2,1.1,1.9,340.6,0.00,24.3,28.6,"21:11:52",1
"21/08/29","21:30",0.0,27.3,84.2,1007.8,323.1,1.3,2.7,312.4,0.00,24.4,28.5,"21:22:40",1
"21/08/29","21:40",0.0,27.3,84.1,1008.1,293.6,0.8,1.7,330.5,0.00,24.4,28.4,"21:30:16",1
"21/08/29","21:50",0.0,27.3,83.9,1007.8,297.5,0.7,1.6,303.6,0.00,24.4,28.4,"21:42:00",1
"21/08/29","22:00",0.0,27.3,83.7,1007.6,327.2,1.3,2.6,334.9,0.00,24.3,28.5,"21:58:24",1
"21/08/29","22:10",0.0,27.1,83.4,1008.1,332.9,1.5,2.5,339.9,0.00,24.1,28.5,"22:02:56",1
"21/08/29","22:20",0.0,27.1,83.2,1007.8,325.9,1.1,2.1,340.0,0.00,24.0,28.3,"22:14:08",1
"21/08/29","22:30",0.0,26.9,83.1,1008.3,319.7,1.0,1.7,344.5,0.00,23.8,28.4,"22:23:52",1
"21/08/29","22:40",0.0,26.8,83.2,1008.3,317.1,0.8,1.4,323.7,0.00,23.7,28.3,"22:37:12",1
"21/08/29","22:50",0.0,26.5,83.6,1008.1,314.9,0.8,1.4,321.4,0.00,23.5,28.2,"22:47:28",1
"21/08/29","23:00",0.0,26.4,84.3,1008.1,308.8,1.0,1.8,341.5,0.00,23.6,28.2,"22:59:52",1
"21/08/29","23:10",0.0,26.3,84.7,1008.1,326.6,1.1,1.8,329.7,0.00,23.6,28.3,"23:09:20",1
"21/08/29","23:20",0.0,26.2,85.0,1008.1,334.2,1.5,2.4,340.9,0.00,23.5,28.1,"23:18:08",1
"21/08/29","23:30",0.0,26.3,85.1,1008.1,327.4,1.8,3.1,318.1,0.00,23.6,28.1,"23:24:16",1
"21/08/29","23:40",0.0,26.2,85.0,1008.1,316.2,1.3,3.1,334.3,0.00,23.5,28.0,"23:31:36",1
"21/08/29","23:50",0.0,26.1,85.2,1007.8,321.9,1.2,2.1,339.4,0.00,23.5,28.1,"23:40:02",1
"21/08/29","24:00",0.0,25.8,85.5,1008.1,335.2,1.3,2.4,331.5,0.00,23.2,27.9,"23:51:36",1
